This is the latest recevied weather packets stored in our database for station/object OK1ALX-6. If no packets are shown the sender has not sent any weather packets the latest 10 day(s).
| Time | Temp. | Humidity | Pressure | Rain* | Wind** | Luminosity | Snow |
|---|---|---|---|---|---|---|---|
| 1777044003 | 16.11° C | 50% | 1021 hPa | 0 mm | - | 294 W/m² | - |
| 1777043403 | 16.11° C | 49% | 1020.7 hPa | 0 mm | - | 330 W/m² | - |
| 1777042803 | 16.11° C | 47% | 1020.8 hPa | 0 mm | - | 337 W/m² | - |
| 1777042203 | 16.67° C | 46% | 1020.6 hPa | 0 mm | - | 356 W/m² | - |
| 1777041603 | 16.67° C | 46% | 1020.7 hPa | 0 mm | - | 378 W/m² | - |
| 1777041003 | 17.22° C | 45% | 1020.7 hPa | 0 mm | - | 372 W/m² | - |
| 1777040403 | 17.22° C | 42% | 1020.6 hPa | 0 mm | - | 402 W/m² | - |
| 1777039803 | 17.22° C | 42% | 1020.4 hPa | 0 mm | - | 403 W/m² | - |
| 1777039203 | 17.22° C | 38% | 1020.3 hPa | 0 mm | - | 451 W/m² | - |
| 1777038603 | 16.67° C | 38% | 1020.6 hPa | 0 mm | - | 462 W/m² | - |
| 1777038003 | 17.22° C | 39% | 1020.5 hPa | 0 mm | - | 508 W/m² | - |
| 1777037403 | 16.67° C | 39% | 1020.6 hPa | 0 mm | - | 538 W/m² | - |
| 1777036803 | 17.22° C | 38% | 1020.9 hPa | 0 mm | - | 568 W/m² | - |
| 1777036203 | 16.67° C | 39% | 1021.2 hPa | 0 mm | - | 563 W/m² | - |
| 1777035603 | 16.11° C | 41% | 1020.9 hPa | 0 mm | - | 545 W/m² | - |
| 1777035003 | 16.11° C | 40% | 1021.3 hPa | 0 mm | - | 546 W/m² | - |
| 1777034403 | 16.11° C | 40% | 1021.6 hPa | 0 mm | - | 356 W/m² | - |
| 1777033803 | 15.56° C | 41% | 1021.6 hPa | 0 mm | - | 507 W/m² | - |
| 1777033203 | 15.56° C | 41% | 1021.7 hPa | 0 mm | - | 603 W/m² | - |
| 1777032603 | 16.67° C | 40% | 1021.6 hPa | 0 mm | - | 594 W/m² | - |
| 1777032003 | 15.56° C | 42% | 1021.7 hPa | 0 mm | - | 566 W/m² | - |
| 1777031403 | 16.11° C | 41% | 1021.7 hPa | 0 mm | - | 538 W/m² | - |
| 1777030803 | 15.56° C | 42% | 1022.1 hPa | 0 mm | - | 609 W/m² | - |
| 1777030203 | 15.56° C | 42% | 1022 hPa | 0 mm | - | 620 W/m² | - |
| 1777029603 | 15° C | 41% | 1022.2 hPa | 0 mm | - | 603 W/m² | - |
* Rain latest hour (hover to see other rain measurements)
** Current wind speed in m/s (hover to see current wind gust speed)